Location: Alladorf
(49.9620°N, 11.3790°E)
Time: 21:10:34
(UTC+00:00)

RESURS DK-1 - Pass Details

Date: 29 November 2020
Orbit: 557 x 560 km, 69.9° (Epoch: 25 January)

Event Time Altitude Azimuth Distance (km) Brightness Sun altitude
Exits shadow 04:27:14 - 196° (SSW) 2,493 5.6 -22.0°
Reaches altitude 10° 04:28:51 10° 192° (SSW) 1,845 4.9 -21.7°
Maximum altitude 04:32:53 54° 115° (ESE) 689 3.1 -21.1°
Drops below altitude 10° 04:36:56 10° 39° (NE) 1,861 5.4 -20.4°
Sets 04:39:11 0° 34° (NE) 2,761 6.2 -20.1°
